Regional Weather Roundup
Issued by NWS Charleston, SC

Current Version | Previous Version | Graphics & Text | Print | Product List | Glossary On
Versions: 1 2 3 4 5 6 7 8 9 10 11 12 13 14 15 16 17 18 19 20 21 22 23 24 25 26 27 28 29 30 31 32 33 34 35 36 37 38 39 40 41 42 43 44 45 46 47 48 49 50
000 ASUS42 KCHS 262025 RWRCHS REGIONAL WEATHER ROUNDUP NATIONAL WEATHER SERVICE CHARLESTON SC 300 PM EST MON JAN 26 2015 NOTE: "FAIR" INDICATES FEW OR NO CLOUDS BELOW 12,000 FEET WITH NO SIGNIFICANT WEATHER AND/OR OBSTRUCTIONS TO VISIBILITY. NOT ALL STATIONS ARE QUALITY CONTROLLED BY THE NATIONAL WEATHER SERVICE. USE DATA WITH CAUTION...ESPECIALLY DEWPOINT OBSERVATIONS. SCZ027-030-031-034>040-042>050-262100- ...SOUTHEAST SOUTH CAROLINA... CITY SKY/WX TMP DP RH WIND PRES REMARKS N CHARLESTON PTSUNNY 56 39 53 W12 29.63S WATERFRONT PRK N/A 55 N/A N/A W10G20 N/A MOUNT PLEASANT CLOUDY N/A N/A N/A W12 29.62S PINOPOLIS NOT AVBL MONCKS CORNER CLOUDY 57 39 51 W5 29.62S SUMMERVILLE CLOUDY 57 41 54 W13G22 29.64S BEAUFORT MCAS CLOUDY 55 39 54 W15G26 29.68S BEAUFORT ARPT CLOUDY 54 43 66 W13G26 29.67S HILTON HEAD IS PTSUNNY 55 39 54 W13G25 29.70S WALTERBORO CLOUDY 57 34 41 W16G23 29.66R ALLENDALE CLOUDY 55 39 54 W10G20 29.67R ...SOUTHERN MIDLANDS AND PEE DEE... CITY SKY/WX TMP DP RH WIND PRES REMARKS GEORGETOWN NOT AVBL KINGSTREE NOT AVBL ORANGEBURG CLOUDY 57 35 43 W8G24 29.63S BARNWELL CLOUDY 55 37 50 SW10G18 29.67S AIKEN CLOUDY 55 36 47 W20G25 29.70R MANNING NOT AVBL COLUMBIA PTSUNNY 54 39 57 NW9 29.63S SUMTER PTSUNNY 51 40 68 W7 29.61R FLORENCE CLOUDY 52 43 71 N13 29.59S MYRTLE BEACH PTSUNNY 57 39 51 NW14G24 29.59S N MYRTLE BEACH LGT RAIN 57 42 57 W9 29.56S $$ GAZ063-065-086>088-099>101-113>116-118-119-134>141-150-262100- ...SOUTHEAST GEORGIA... CITY SKY/WX TMP DP RH WIND PRES REMARKS SAVANNAH ARPT CLOUDY 54 38 54 W16 29.72S HUNTER AAF PTSUNNY 55 39 55 W18G26 29.70S FORT STEWART CLOUDY 53 38 56 W13 29.74R STATESBORO CLOUDY 53 38 58 NW21G32 29.74R SYLVANIA CLOUDY 53 40 62 W21G30 29.72R CLAXTON FAIR 52 39 62 W21G32 29.77R ...CSRA...CENTRAL AND FAR SOUTHEAST GEORGIA... CITY SKY/WX TMP DP RH WIND PRES REMARKS THOMSON PTSUNNY 52 39 60 W20G25 29.77R AUGUSTA-BUSH PTSUNNY 56 36 47 W23 29.69R AUGUSTA-DANIEL CLOUDY 54 35 48 W10G25 29.70R SWAINSBORO CLOUDY 54 30 40 W15G23 29.76S VIDALIA CLOUDY 50 39 66 W12G20 29.79R EASTMAN CLOUDY 50 39 66 NW12G24 29.85R HAZLEHURST CLOUDY 51 40 65 W9G18 29.80S ALMA CLOUDY 51 38 60 W18G25 29.81S WAYCROSS CLOUDY 55 41 60 NW17G23 29.82S JESUP CLOUDY 55 43 62 NW22G29 29.79R BAXLEY CLOUDY 52 37 58 NW18G28 29.81R BRUNSWICK CLOUDY 55 36 47 W20G31 29.79R SAINT SIMONS PTSUNNY 55 38 52 W17G25 29.77R $$ SCZ027-028-034-036>038-045-046-048>050-GAZ119-141-262100- ...LAKE AND SUPPLEMENTAL COASTAL OBSERVATIONS... STATION/POSITION TIME TEMP WIND PRES WAVE SWELL AIR SEA DIR/SP/G HT/PER HT/PER/DIR (UTC) (F) (DEG/KT/KT) (MB) (FT/S) (FT/S/D) UPR LAKE MARION NOT AVBL WINYAH BAY 1900 57 270/ 10 1001.0S LAKE MURRAY 1900 54 280/ 7/ 12 1003.0S ACE BASIN NERRS 1900 55 290/ 5 1004.0S FORT PULASKI 2000 53 53 270/ 20/ 24 1006.4R SAPELO ISLAND 1900 55 280/ 19 1007.0S $$ ANZ835-935-AMZ111-154-330-350-352-354-370-450-454-472-262100- ...C-MAN AND BUOY OBSERVATIONS... STATION/POSITION TIME TEMP WIND PRES WAVE SWELL AIR SEA DIR/SP/G HT/PER HT/PER/DIR (UTC) (F) (DEG/KT/KT) (MB) (FT/S) (FT/S/D) BUOY 41004 2000 57 69 270/ 23/ 31 1002.1F 6/ 7 2/10 BUOY 41008 2000 54 55 290/ 23/ 29 1006.2R 5/ 5 FOLLY BEACH CMAN 2000 54 270/ 6/ 9 1004.1R CAPERS NEARSHORE 1900 55 320/ 16/ 19 N/A FRIPP NEARSHORE 1900 54 270/ 21/ 25 N/A STATION/POSITION TIME TEMP WIND PRES WAVE SWELL AIR SEA DIR/SP/G HT/PER HT/PER/DIR (UTC) (F) (DEG/KT/KT) (MB) (FT/S) (FT/S/D) 5E ST. MARYS GA 2000 58 N/A 3/ 4 FRYING PAN BUOY 2000 55 67 270/ 16/ 19 1001.4R 6/ 7 BUOY 41025 2000 58 71 360/ 6/ 8 998.7R 3/ 7 3/200/ 7 CAPE LOOKOUT NC 2000 50 310/ 6/ 8 999.3F BUOY 41002 1854 61 72 250/ 12/ 17 1000.3F 11/ 8 10/250/ 8 BUOY 41010 2000 66 76 280/ 29/ 37 1006.4R 12/ 8 ST AUGUSTINE FL 2000 58 270/ 17/ 24 1009.3R $$

USA.gov is the U.S. government's official web portal to all federal, state and local government web resources and services.